This demonstration page uses our WeatherBlox Daily Observations layout. Learn more.

Left ArrowRight Arrow

31.31129, -92.44514

Hourly Observations for December 8, 2021

Temp ( °F °C ) Dew Point ( °F °C ) Humidity (%) Winds ( mph kmh ) Pressure ( in mb ) Visibility ( mi km ) Precip ( " mm )
12:03 am 00:03 Cloudy with Light Rain 48 8.9 46 7.8 93 93 NNW 3 6 30.01 1016 3 5 0.00 0.00
12:53 am 00:53 Cloudy with Light Rain 49 9.4 46 7.8 90 90 Calm 30.02 1017 4 6 0.02 0.51
1:02 am 01:02 Cloudy with Mist and Fog 49 9.4 46 7.8 90 90 N 3 6 30.00 1016 6 10 0.00 0.00
1:13 am 01:13 Cloudy 49 9.4 46 7.8 90 90 N 3 6 30.00 1016 7 11 0.00 0.00
1:53 am 01:53 Cloudy 49 9.4 46 7.8 90 90 N 6 9 30.02 1017 7 11 0.00 0.00
2:17 am 02:17 Cloudy with Mist and Fog 49 9.4 46 7.8 90 90 NNW 6 9 30.01 1016 6 10 0.00 0.00
2:34 am 02:34 Cloudy 49 9.4 46 7.8 90 90 N 7 11 30.01 1016 7 11 0.00 0.00
2:53 am 02:53 Cloudy 49 9.4 46 7.8 90 90 N 7 11 30.03 1017 7 11 0.00 0.00
3:50 am 03:50 Cloudy with Light Rain 48 9 46 8 94 94 N 5 7 30.02 1017 6 10 0.00 0.00
3:53 am 03:53 Cloudy with Light Rain 49 9.4 46 7.8 90 90 N 5 7 30.04 1017 6 10 0.01 0.25
4:11 am 04:11 Cloudy with Light Rain 49 9.4 46 7.8 90 90 NNE 3 6 30.01 1016 7 11 0.00 0.00
4:53 am 04:53 Cloudy with Light Rain 49 9.4 45 7.2 86 86 N 8 13 30.03 1017 6 10 0.00 0.00
5:10 am 05:10 Cloudy 49 9.4 46 7.8 90 90 N 6 9 30.03 1017 7 11 0.00 0.00
5:53 am 05:53 Cloudy 49 9.4 46 7.8 90 90 NNE 3 6 30.05 1018 9 14 0.00 0.00
6:35 am 06:35 Cloudy 48 8.9 45 7.2 89 89 NNE 7 11 30.05 1018 10 16 0.00 0.00
6:53 am 06:53 Cloudy 48 8.9 45 7.2 89 89 NNE 6 9 30.06 1018 10 16 0.00 0.00
7:01 am 07:01 Cloudy 48 8.9 45 7.2 89 89 NNE 6 9 30.06 1018 10 16 0.00 0.00
7:53 am 07:53 Cloudy 49 9.4 45 7.2 86 86 NNE 3 6 30.10 1019 9 14 0.00 0.00
8:53 am 08:53 Cloudy 50 10 45 7.2 83 83 Calm 30.11 1020 9 14 0.00 0.00
9:31 am 09:31 Cloudy 51 10.6 46 7.8 83 83 Calm 30.11 1020 10 16 0.00 0.00
9:45 am 09:45 Cloudy 51 10.6 46 7.8 83 83 Calm 30.11 1020 10 16 0.00 0.00
9:53 am 09:53 Cloudy 51 10.6 45 7.2 80 80 Calm 30.13 1020 10 16 0.00 0.00
10:53 am 10:53 Mostly Cloudy 55 12.8 46 7.8 72 72 Calm 30.12 1020 10 16 0.00 0.00
11:53 am 11:53 Sunny 59 15 46 7.8 62 62 ESE 6 9 30.09 1019 10 16 0.00 0.00
12:53 pm 12:53 Sunny 62 16.7 45 7.2 54 54 ENE 5 7 30.06 1018 10 16 0.00 0.00
1:53 pm 13:53 Sunny 64 17.8 46 7.8 52 52 E 7 11 30.04 1017 10 16 0.00 0.00
2:53 pm 14:53 Sunny 66 18.9 47 8.3 50 50 Calm 30.01 1016 10 16 0.00 0.00
3:53 pm 15:53 Sunny 64 17.8 48 8.9 56 56 ESE 9 15 30.00 1016 10 16 0.00 0.00
4:53 pm 16:53 Sunny 61 16.1 46 7.8 58 58 E 6 9 30.01 1016 10 16 0.00 0.00
5:53 pm 17:53 Clear 55 12.8 47 8.3 74 74 SE 7 11 30.03 1017 10 16 0.00 0.00
6:53 pm 18:53 Clear 53 11.7 45 7.2 74 74 ESE 5 7 30.04 1017 10 16 0.00 0.00
7:53 pm 19:53 Clear 54 12.2 45 7.2 72 72 E 6 9 30.04 1017 10 16 0.00 0.00
8:53 pm 20:53 Clear 51 10.6 45 7.2 80 80 ESE 6 9 30.04 1017 10 16 0.00 0.00
9:53 pm 21:53 Clear 50 10 46 7.8 86 86 S 3 6 30.05 1018 10 16 0.00 0.00
10:53 pm 22:53 Clear 50 10 45 7.2 83 83 ESE 6 9 30.02 1017 10 16 0.00 0.00
11:53 pm 23:53 Cloudy 51 10.6 47 8.3 86 86 S 5 7 30.01 1016 10 16 0.00 0.00

Powered by AerisWeather